Location: Knobs
(40.8333°S, 175.2333°E)
Time: 02:29:50
(UTC+00:00)

USA 229 - Pass Details

Date: 12 June 2024
Orbit: 886 x 1325 km, 63.4° (Epoch: 21 July)

Event Time Altitude Azimuth Distance (km) Brightness Sun altitude
Exits shadow 16:51:52 75° 51° (NE) 983 3.5 -31.1°
Drops below altitude 10° 16:57:19 10° 35° (NE) 2,585 6.2 -30.0°
Sets 16:59:44 0° 34° (NE) 3,498 6.9 -29.6°
